Weather History for Plattsburgh, NY

Change the Weather History Date:

Monday, January 21, 2013

  Actual Average Record
Temperature  
Mean Temperature 8 °F 16 °F  
Max Temperature 13 °F 27 °F 48 °F (1951)
Min Temperature 2 °F 5 °F -16 °F (1984)
Degree Days  
Heating Degree Days 57 49  
Month to date heating degree days 897 1004  
Since 1 July heating degree days 3556 3890  
Moisture  
Dew Point 2 °F    
Average Humidity 71    
Maximum Humidity 80    
Minimum Humidity 61    
Precipitation  
Precipitation T in - 1.70 in (1978)
Month to date precipitation 0.31  
Year to date precipitation 0.31  
Sea Level Pressure  
Sea Level Pressure 29.98 in    
Wind  
Wind Speed 7 mph (North)    
Max Wind Speed 16 mph    
Max Gust Speed 20 mph    
Visibility 7 miles    
Events Snow    
T = Trace of Precipitation, MM = Missing Value Source: NWS Daily Summary

Daily Weather History Graph

Daily Weather History Graph

Search for Another Location

Airport:

Trip Planner

Search our weather history database for the weather conditions in past years. The results will help you decide how hot, cold, wet, or windy it might be!

Date:

Astronomy

Jan. 21, 2013 Rise Set
Actual Time 7:23 AM EST 4:47 PM EST
Civil Twilight 6:51 AM EST 5:19 PM EST
Nautical Twilight 6:15 AM EST 5:55 PM EST
Astronomical Twilight 5:40 AM EST 6:30 PM EST
Moon 12:24 PM EST (1/21) 2:49 AM EST (1/21)
Length of Visible Light 10h 28m
Length of Day
9h 24m
Waxing Gibbous, 75% of the Moon is Illuminated
Jan 21
Waxing Gibbous
Jan 26
Full
Feb 3
Last Quarter
Feb 10
New
Feb 17
First Quarter

Hourly Weather History & Observations

Time (EST) Temp. Windchill Dew Point Humidity Pressure Visibility Wind Dir Wind Speed Gust Speed Precip Events Conditions
12:53 AM 10.9 °F -4.7 °F 1.0 °F 64% 30.01 in 10.0 mi North 13.8 mph - N/A   Scattered Clouds
1:53 AM 9.0 °F -6.6 °F -0.0 °F 67% 30.02 in 10.0 mi North 12.7 mph 19.6 mph N/A   Clear
2:53 AM 7.0 °F -3.3 °F -2.0 °F 67% 30.04 in 10.0 mi Variable 5.8 mph - N/A   Clear
4:53 AM 3.9 °F - -2.9 °F 73% 30.04 in 10.0 mi Calm Calm - N/A   Clear
5:53 AM 5.0 °F -4.1 °F -2.9 °F 70% 30.05 in 10.0 mi NW 4.6 mph - N/A   Clear
7:53 AM 3.9 °F -6.9 °F -2.0 °F 76% 30.07 in 10.0 mi NNW 5.8 mph - N/A   Overcast
8:53 AM 7.0 °F 0.1 °F -2.0 °F 67% 30.08 in 10.0 mi North 3.5 mph - N/A   Overcast
9:53 AM 9.0 °F - -0.9 °F 64% 30.09 in 10.0 mi Calm Calm - N/A   Mostly Cloudy
10:53 AM 10.0 °F 1.8 °F 3.0 °F 73% 30.08 in 10.0 mi ESE 4.6 mph - N/A   Mostly Cloudy
11:41 AM 10.4 °F 2.2 °F 3.2 °F 73% 30.03 in 10.0 mi NE 4.6 mph - N/A   Overcast
11:53 AM 10.9 °F 4.7 °F 3.9 °F 73% 30.04 in 10.0 mi ENE 3.5 mph - N/A   Overcast
12:07 PM 10.4 °F -0.4 °F 3.2 °F 73% 30.01 in 10.0 mi North 6.9 mph - N/A   Overcast
12:53 PM 10.9 °F -1.8 °F 5.0 °F 77% 30.00 in 10.0 mi NNE 9.2 mph - 0.00 in   Clear
1:53 PM 12.0 °F 4.1 °F 5.0 °F 73% 29.99 in 10.0 mi NNE 4.6 mph - 0.00 in   Overcast
2:53 PM 12.9 °F 2.6 °F 3.9 °F 67% 29.98 in 10.0 mi NNE 6.9 mph - N/A   Overcast
3:53 PM 10.9 °F -0.8 °F 3.0 °F 70% 29.97 in 10.0 mi North 8.1 mph - N/A   Mostly Cloudy
4:53 PM 10.0 °F -1.9 °F 1.9 °F 70% 29.97 in 10.0 mi North 8.1 mph - N/A   Overcast
5:53 PM 9.0 °F -5.1 °F 3.0 °F 77% 29.97 in 2.5 mi North 10.4 mph - 0.00 in Snow Light Snow
6:02 PM 8.6 °F -6.3 °F 3.2 °F 79% 29.96 in 2.5 mi North 11.5 mph - 0.00 in Snow Light Snow
6:13 PM 8.6 °F -7.7 °F 3.2 °F 79% 29.95 in 3.0 mi North 13.8 mph - 0.00 in Snow Light Snow
6:26 PM 8.6 °F -3.7 °F 3.2 °F 79% 29.96 in 3.0 mi North 8.1 mph - 0.00 in Snow Light Snow
6:53 PM 7.0 °F -7.5 °F 1.9 °F 80% 29.98 in 4.0 mi North 10.4 mph - 0.00 in Snow Light Snow
7:31 PM 6.8 °F -5.9 °F 1.4 °F 79% 29.95 in 2.5 mi NNW 8.1 mph - 0.00 in Snow Light Snow
7:51 PM 6.8 °F -6.9 °F 1.4 °F 79% 29.94 in 1.8 mi NNW 9.2 mph - 0.00 in Snow Light Snow
7:53 PM 7.0 °F -6.6 °F 1.9 °F 80% 29.96 in 1.8 mi NNW 9.2 mph - 0.00 in Snow Light Snow
8:48 PM 8.6 °F 0.1 °F 1.4 °F 73% 29.92 in 2.5 mi NW 4.6 mph - 0.00 in Snow Light Snow
8:53 PM 6.1 °F -2.8 °F 1.9 °F 83% 29.94 in 2.5 mi NW 4.6 mph - 0.00 in Snow Light Snow
9:00 PM 6.8 °F -4.8 °F 1.4 °F 79% 29.92 in 3.0 mi NW 6.9 mph - 0.00 in Snow Light Snow
9:27 PM 6.8 °F -3.5 °F 1.4 °F 79% 29.91 in 4.0 mi NW 5.8 mph - 0.00 in Snow Light Snow
9:53 PM 6.1 °F -5.6 °F 1.0 °F 80% 29.92 in 7.0 mi NNW 6.9 mph - 0.00 in Snow Light Snow
10:53 PM 7.0 °F -7.5 °F 1.0 °F 77% 29.90 in 6.0 mi NNW 10.4 mph - 0.00 in Snow Light Snow
11:53 PM 7.0 °F -10.4 °F 1.9 °F 80% 29.87 in 2.5 mi North 15.0 mph - 0.00 in Snow Light Snow